Regional Weather Roundup
Issued by NWS

Home | Current Version | Previous Version | Graphics & Text | Print | Product List | Glossary On
Versions: 1 2 3 4 5 6 7 8 9 10 11 12 13 14 15 16 17 18 19 20 21 22 23 24 25 26 27 28 29 30 31 32 33 34 35 36 37 38 39 40 41 42 43 44 45 46 47 48 49 50
000
ASUS45 KPSR 280610
RWRAZ

ARIZONA REGIONAL HOURLY WEATHER ROUNDUP
NATIONAL WEATHER SERVICE PHOENIX AZ
1100 PM MST SAT DEC 27 2014

NOTE: FAIR INDICATES FEW OR NO CLOUDS BELOW 12,000 FEET WITH NO
SIGNIFICANT WEATHER AND/OR OBSTRUCTIONS TO VISIBILITY.

AZZ001>003-036-280700-
NORTHWEST ARIZONA

CITY           SKY/WX    TMP DP  RH WIND       PRES   REMARKS
BULLHEAD CITY  CLEAR     46  10  23 N10       30.38R
KINGMAN        CLEAR     24  12  60 E7        30.32F WCI  16
6HR MIN TEMP:  22; 6HR MAX TEMP:  41;

$$

AZZ004>008-015-016-018-280700-
NORTH CENTRAL ARIZONA

CITY           SKY/WX    TMP DP  RH WIND       PRES   REMARKS
GRAND CANYON   CLEAR     10   6  84 CALM      30.26F
6HR MIN TEMP:   9; 6HR MAX TEMP:  30;

PRESCOTT       CLEAR     22  11  62 S7        30.29S WCI  13
6HR MIN TEMP:  22; 6HR MAX TEMP:  39;

FLAGSTAFF      CLEAR     11   6  81 CALM      30.26R
6HR MIN TEMP:  11; 6HR MAX TEMP:  27;

PAYSON         CLEAR     28  10  47 CALM      30.30S
PAGE           CLEAR     29   9  43 W3        30.29F
6HR MIN TEMP:  28; 6HR MAX TEMP:  35;

$$

AZZ009>014-017-280700-
NORTHEAST ARIZONA

CITY           SKY/WX    TMP DP  RH WIND       PRES   REMARKS
WINSLOW        CLEAR     18  11  74 SE3       30.32S
6HR MIN TEMP:  16; 6HR MAX TEMP:  36;

SAINT JOHNS    CLEAR     20  12  71 S7        30.28F WCI  11
6HR MIN TEMP:  19; 6HR MAX TEMP:  34;

WINDOW ROCK    CLEAR      7   2  80 CALM      30.26F
6HR MIN TEMP:   3; 6HR MAX TEMP:  27;

SHOW LOW       CLEAR     18   7  62 E8        30.28F WCI   7
$$

AZZ023-280700-
GREATER PHOENIX AREA

CITY           SKY/WX    TMP DP  RH WIND       PRES   REMARKS
PHOENIX        CLEAR     45  22  40 W5        30.29R
6HR MIN TEMP:  44; 6HR MAX TEMP:  58;

BUCKEYE          N/A     45  16  31 N9        30.32S
LUKE AFB       CLEAR     44  20  38 CALM      30.30R
6HR MIN TEMP:  42; 6HR MAX TEMP:  57;

DEER VALLEY    CLEAR     41  21  44 N5        30.30R
6HR MIN TEMP:  41; 6HR MAX TEMP:  56;

SCOTTSDALE     CLEAR     42  23  46 CALM      30.31R
6HR MIN TEMP:  41; 6HR MAX TEMP:  57;

MESA-GATEWAY   CLEAR     36  21  55 E3        30.32R
$$

AZZ027-028-280700-
SOUTHWEST MARICOPA COUNTY AND PINAL COUNTY

CITY           SKY/WX    TMP DP  RH WIND       PRES   REMARKS
CASA GRANDE    CLEAR     36  19  51 CALM      30.30S
6HR MIN TEMP:  36; 6HR MAX TEMP:  54;

GILA BEND      FAIR      37  23  57 S5        30.33S WCI  33
6HR MIN TEMP:  37; 6HR MAX TEMP:  56;

$$

AZZ503-504-507>509-280700-
SOUTHEAST ARIZONA

CITY           SKY/WX    TMP DP  RH WIND       PRES   REMARKS
TUCSON         CLEAR     36  27  69 SE5       30.30S WCI  32
DAVIS-MONTHAN  CLEAR     33  28  81 SE6       30.27S WCI  27
6HR MIN TEMP:  33; 6HR MAX TEMP:  49;

NOGALES        CLEAR     32  15  49 SE3       30.24F
6HR MIN TEMP:  32; 6HR MAX TEMP:  47;

SIERRA VISTA   CLEAR     28  14  55 SE3       30.25F
6HR MIN TEMP:  28; 6HR MAX TEMP:  42;

DOUGLAS        CLEAR     22  19  89 CALM      30.27F
6HR MIN TEMP:  22; 6HR MAX TEMP:  45;

SAFFORD        CLEAR     32  18  56 CALM      30.28S
6HR MIN TEMP:  28; 6HR MAX TEMP:  47;

$$

AZZ020-021-025-026-031-280700-
SOUTHWEST ARIZONA

CITY           SKY/WX    TMP DP  RH WIND       PRES   REMARKS
YUMA           CLEAR    N/A N/A N/A CALM      30.34F

$$

CAZ031-033-041-043-047-048-061-280700-
SOUTHERN CALIFORNIA

CITY           SKY/WX    TMP DP  RH WIND       PRES   REMARKS
DOWNTOWN L.A.  CLEAR     48  33  56 NE3       30.33R
6HR MIN TEMP:  47; 6HR MAX TEMP:  61;

L.A. AIRPORT   PTCLDY    50  24  36 NE3       30.33S
6HR MIN TEMP:  50; 6HR MAX TEMP:  58;

SAN DIEGO      PTCLDY    53  28  38 E7        30.32F
6HR MIN TEMP:  53; 6HR MAX TEMP:  61;

BURBANK        CLEAR     47  23  38 NW7       30.32R
6HR MIN TEMP:  47; 6HR MAX TEMP:  59;

ONTARIO        PTCLDY    45  23  42 NW3       30.32S
6HR MIN TEMP:  43; 6HR MAX TEMP:  59;

RIVERSIDE      PTCLDY    46  17  31 NE5       30.32F
6HR MIN TEMP:  46; 6HR MAX TEMP:  60;

PALM SPRINGS   CLEAR     45  18  34 NW3       30.37S
6HR MIN TEMP:  45; 6HR MAX TEMP:  59;

EL CENTRO NAS  CLEAR     38  13  35 W6        30.35F WCI  33
6HR MIN TEMP:  38; 6HR MAX TEMP:  59;

IMPERIAL       CLEAR     39  18  42 W5        30.35F
6HR MIN TEMP:  38; 6HR MAX TEMP:  59;

BLYTHE         CLEAR     42  17  36 CALM      30.36R
6HR MIN TEMP:  41; 6HR MAX TEMP:  58;

NEEDLES        CLEAR     41  10  28 NW8       30.36S
6HR MIN TEMP:  40; 6HR MAX TEMP:  54;

$$

NVZ020-UTZ003-280700-
SOUTHERN NEVADA-UTAH

CITY           SKY/WX    TMP DP  RH WIND       PRES   REMARKS
LAS VEGAS      PTCLDY    37  10  32 S9        30.32F WCI  30
6HR MIN TEMP:  37; 6HR MAX TEMP:  47;

SALT LAKE CITY CLOUDY    25  16  68 SE8       30.25F WCI  16
6HR MIN TEMP:  24; 6HR MAX TEMP:  26;

$$

NMZ009-TXZ055-280700-
NEW MEXICO-WEST TEXAS

CITY           SKY/WX    TMP DP  RH WIND       PRES   REMARKS
ALBUQUERQUE    CLEAR     25   9  50 N7        30.28F WCI  17
6HR MIN TEMP:  25; 6HR MAX TEMP:  35;

EL PASO        PTCLDY    34  30  85 S6        30.28R WCI  29
6HR MIN TEMP:  34; 6HR MAX TEMP:  43;

$$


........................KEY........................
SKY/WX - SKY CONDITION/WEATHER
TMP    - TEMPERATURE IN FAHRENHEIT
DP     - DEW POINT IN FAHRENHEIT
RH     - RELATIVE HUMIDITY IN PERCENT
WIND   - DIRECTION AND SPEED IN MILES PER HOUR (MPH)
VRB    - VARIABLE WIND DIRECTION
PRES   - MEAN SEA LEVEL PRESSURE IN INCHES OF MERCURY
         F - FALLING PRESSURE   R - RISING PRESSURE
         S - STEADY PRESSURE
VSB    - VISIBILITY IN MILES
HX     - HEAT INDEX IN FAHRENHEIT
WCI    - WIND CHILL INDEX IN FAHRENHEIT
TC     - TEMPERATURE IN CELSIUS WHICH IS ALSO KNOWN AS
         TEMPERATURE IN CENTIGRADE
AFB    - AIR FORCE BASE
         LUKE AFB IS LUKE AIR FORCE BASE
         DAVIS-MONTHAN IS DAVIS-MONTHAN AIR FORCE BASE
NAS    - NAVAL AIR STATION
         EL CENTRO NAS IS EL CENTRO NAVAL AIR STATION
N/A    - NOT AVAILABLE



USA.gov is the U.S. government's official web portal to all federal, state and local government web resources and services.